Wetbulb
60.97 60.94 60.96 60.98 61.05 61.05 61.09 61.11 61.09 61.21 61.32 61.32 61.16 60.92 60.89 60.88 60.77 60.88 60.82 60.74 60.58 60.46 60.31 60.42 60.44 60.44 60.27 60.14 60.14 60.03 59.82 59.63 59.68 59.62 59.48 59.31 59.05 59.08 59.00 58.84 58.87 58.97 58.90 58.40 57.37 56.44 55.77 55.14 54.95 54.50 53.83 53.38 53.11 52.83 52.68 52.53 51.97 51.48 50.95 50.24 49.37 48.24 47.07 46.01 45.52 44.99 44.38 43.64 42.82
60.75 60.75 60.85 60.98 61.10 61.12 61.18 61.12 61.16 61.28 61.34 61.39 61.46 61.30 61.14 61.09 61.05 60.98 60.90 60.71 60.81 60.76 60.63 60.67 60.65 60.52 60.27 60.13 60.25 60.10 59.92 59.74 59.65 59.60 59.43 59.17 59.14 59.21 59.21 59.04 59.13 58.98 58.47 57.45 56.34 55.59 54.97 54.20 53.78 53.29 52.84 52.48 52.30 52.05 51.88 51.82 51.45 50.73 49.86 49.08 48.13 47.15 46.14 45.35 44.74 44.13 43.35 42.46 41.31
60.71 60.75 60.91 60.83 60.86 60.89 60.95 61.07 61.11 61.00 61.03 61.23 61.46 61.57 61.46 61.37 61.27 61.13 61.01 60.81 60.85 60.84 60.84 60.75 60.78 60.59 60.22 60.18 60.27 60.18 59.90 59.74 59.71 59.57 59.37 59.18 59.21 59.15 59.00 59.09 58.71 58.20 57.43 56.34 55.49 54.73 54.20 53.38 53.10 52.74 52.28 51.88 51.51 51.18 50.88 50.86 50.64 49.93 49.02 48.20 47.31 46.44 45.75 45.31 44.10 42.98 41.93 40.88 39.63
60.62 60.62 60.61 60.51 60.38 60.59 60.83 61.17 61.06 60.95 60.98 61.29 61.33 61.47 61.65 61.55 61.44 61.22 60.97 60.78 60.74 60.74 60.86 60.95 61.06 60.90 60.59 60.41 60.14 60.04 59.96 59.71 59.68 59.43 59.35 59.30 59.23 58.98 58.67 58.31 57.33 56.55 55.80 54.99 54.23 53.69 53.24 52.79 52.65 52.32 51.99 51.53 51.09 50.67 50.34 50.13 50.00 49.42 48.60 47.80 46.91 46.01 45.14 44.41 43.04 42.03 40.87 39.48 38.12
60.48 60.58 60.74 60.66 60.54 60.64 60.96 61.20 61.11 61.16 61.28 61.44 61.59 61.54 61.56 61.59 61.26 61.04 60.81 60.81 60.73 60.82 60.88 60.97 61.26 61.25 60.95 60.57 60.10 59.84 59.71 59.55 59.54 59.56 59.47 59.30 58.85 58.46 57.80 56.90 56.01 55.39 54.76 54.17 53.55 53.05 52.60 52.25 52.39 52.15 51.80 51.41 51.15 50.67 50.37 50.08 49.29 48.64 47.99 47.27 46.26 45.22 44.11 42.96 41.87 40.87 39.76 38.54 37.23
60.39 60.54 60.60 60.75 60.70 60.83 61.06 61.24 61.22 61.29 61.40 61.58 61.54 61.48 61.42 61.39 61.13 60.85 60.62 60.52 60.49 60.45 60.59 60.74 60.92 61.00 60.80 60.46 60.11 59.79 59.57 59.42 59.44 59.51 59.52 59.19 58.53 57.67 56.77 55.96 55.55 55.00 54.41 53.86 53.28 52.84 52.54 52.38 52.34 52.15 51.90 51.72 51.32 50.95 50.51 49.75 48.67 47.64 46.58 45.43 44.58 43.51 42.36 41.34 40.48 39.61 38.69 37.37 36.30
60.36 60.42 60.48 60.52 60.65 60.77 60.94 61.00 61.30 61.49 61.49 61.48 61.31 61.25 61.23 61.17 60.85 60.57 60.32 60.43 60.39 60.40 60.50 60.67 60.60 60.68 60.68 60.42 60.00 59.81 59.48 59.41 59.58 59.51 59.26 58.80 57.97 57.19 56.39 55.54 55.03 54.48 54.11 53.60 53.29 52.98 52.80 52.72 52.34 52.06 51.95 51.77 51.25 50.76 50.17 49.54 47.95 46.31 44.87 43.60 42.84 41.99 40.98 39.78 39.29 38.54 37.47 35.94 35.32
60.28 60.36 60.46 60.58 60.69 60.79 60.80 60.90 61.28 61.38 61.41 61.38 61.36 61.23 61.09 60.94 60.66 60.36 60.23 60.25 60.32 60.39 60.46 60.59 60.49 60.52 60.62 60.42 60.06 59.76 59.57 59.47 59.53 59.23 58.86 58.27 57.48 56.66 55.92 55.16 54.71 54.34 53.97 53.65 53.38 53.11 52.93 52.83 52.26 51.78 51.37 51.16 50.71 50.26 49.47 48.26 46.34 44.70 43.35 42.07 41.56 40.80 39.88 38.97 38.15 37.39 36.58 35.49 34.94
60.00 60.21 60.28 60.36 60.58 60.72 60.85 61.04 61.10 61.17 61.13 61.12 61.25 61.24 61.23 60.92 60.69 60.43 60.24 60.19 60.24 60.34 60.44 60.41 60.43 60.49 60.45 60.21 59.93 59.73 59.59 59.56 59.24 58.88 58.40 57.73 56.80 55.99 55.31 54.79 54.43 54.16 53.89 53.57 53.43 53.03 52.67 52.26 51.55 50.97 50.53 50.13 49.64 49.03 48.04 46.41 44.65 43.31 42.16 41.26 40.62 39.86 39.12 38.32 37.49 36.70 35.98 35.30 34.84
59.62 59.77 59.94 60.00 60.24 60.51 60.83 60.92 61.04 61.05 60.94 60.91 61.10 61.16 61.04 60.70 60.66 60.58 60.46 60.46 60.35 60.31 60.27 60.31 60.45 60.41 60.19 59.87 59.73 59.59 59.50 59.38 58.83 58.18 57.53 56.80 56.06 55.34 54.75 54.46 54.14 53.79 53.56 53.49 53.25 52.71 52.14 51.50 50.83 50.34 49.74 49.11 48.24 47.14 45.97 44.56 43.39 42.30 41.53 41.15 40.24 39.28 38.32 37.62 37.20 36.79 36.38 35.95 35.24
59.27 59.58 59.87 60.03 60.15 60.43 60.80 60.75 60.85 60.99 61.00 60.99 61.09 61.13 60.95 60.69 60.63 60.66 60.67 60.66 60.37 60.11 60.00 60.32 60.44 60.32 59.95 59.57 59.48 59.28 59.16 58.83 58.30 57.53 56.79 55.98 55.42 54.88 54.44 54.11 53.82 53.50 53.26 53.10 52.85 52.34 51.72 51.06 50.31 49.66 48.90 47.93 46.80 45.67 44.48 43.35 42.52 41.64 40.79 40.21 39.44 38.58 37.82 37.30 37.07 36.86 36.53 36.17 35.54
59.24 59.50 59.69 60.00 60.32 60.47 60.76 60.69 60.88 60.94 60.97 61.02 61.18 61.15 61.03 60.90 60.75 60.72 60.67 60.37 60.06 59.88 59.96 60.25 60.39 60.10 59.69 59.40 59.12 58.90 58.53 58.15 57.51 56.81 56.05 55.38 54.93 54.52 54.16 53.83 53.58 53.34 53.01 52.63 52.49 52.03 51.36 50.63 49.77 48.88 47.86 46.71 45.80 44.85 43.76 42.60 41.86 40.99 40.04 39.18 38.53 37.90 37.37 36.96 36.87 36.76 36.45 35.84 35.34
59.36 59.55 59.73 59.91 60.28 60.42 60.58 60.71 60.88 60.92 61.04 61.09 61.21 61.22 61.16 61.06 60.86 60.76 60.52 60.13 59.85 59.88 60.07 60.18 60.14 59.77 59.42 59.05 58.74 58.47 58.05 57.53 56.93 56.22 55.64 55.01 54.60 54.25 53.88 53.55 53.40 53.06 52.71 52.54 52.31 51.73 50.95 50.14 49.12 48.06 46.87 45.68 44.90 44.05 43.18 42.07 41.29 40.39 39.50 38.61 37.99 37.47 37.03 36.69 36.51 36.37 36.04 35.43 35.05
59.45 59.54 59.69 59.86 60.19 60.46 60.64 60.64 60.76 60.92 60.94 60.93 61.16 61.25 61.17 61.08 60.92 60.78 60.55 60.14 59.88 59.82 59.95 59.97 59.81 59.59 59.13 58.75 58.43 58.03 57.56 57.11 56.42 55.73 55.20 54.83 54.42 53.97 53.65 53.37 53.07 52.78 52.51 52.41 52.07 51.41 50.47 49.48 48.42 47.27 46.09 44.91 44.02 43.26 42.48 41.70 40.89 40.05 39.20 38.39 37.80 37.27 36.90 36.68 36.31 35.98 35.62 34.91 34.57
59.36 59.51 59.63 59.80 60.17 60.56 60.70 60.60 60.72 60.76 60.80 60.89 61.16 61.27 61.28 61.17 61.00 60.83 60.58 60.18 59.85 59.77 59.69 59.67 59.39 59.15 58.83 58.54 58.17 57.63 57.15 56.65 56.01 55.36 54.88 54.51 54.27 53.81 53.45 53.17 52.80 52.46 52.21 52.06 51.71 50.91 49.79 48.74 47.76 46.62 45.57 44.39 43.56 42.68 41.91 41.14 40.33 39.49 38.73 38.05 37.60 37.22 36.88 36.51 36.09 35.65 35.18 34.47 33.94
59.21 59.42 59.60 59.84 60.14 60.44 60.52 60.55 60.66 60.70 60.69 60.89 61.10 61.24 61.29 61.18 61.16 60.87 60.39 59.96 59.72 59.61 59.52 59.26 59.02 58.81 58.55 58.16 57.77 57.43 56.94 56.36 55.72 55.17 54.55 54.24 53.86 53.59 53.13 52.81 52.39 52.01 51.76 51.52 50.92 50.08 49.17 48.19 47.22 46.22 45.18 44.22 43.22 42.31 41.38 40.45 39.46 38.58 37.77 37.34 37.12 36.92 36.81 36.60 36.13 35.67 35.07 34.56 34.04
59.19 59.33 59.57 59.89 60.04 60.21 60.29 60.43 60.52 60.54 60.65 60.83 60.93 61.13 61.19 61.18 61.12 60.74 60.17 59.68 59.60 59.30 59.00 58.71 58.68 58.49 58.19 57.77 57.51 57.15 56.74 56.07 55.48 54.93 54.36 53.83 53.39 53.02 52.69 52.28 51.99 51.63 51.33 50.85 49.92 49.05 48.27 47.58 46.87 45.87 44.96 43.92 42.93 41.86 40.73 39.70 38.78 37.93 37.24 36.94 36.74 36.59 36.72 37.21 36.53 35.86 35.29 34.97 34.34
59.10 59.31 59.58 59.79 59.92 60.07 60.07 60.11 60.20 60.20 60.43 60.60 60.89 60.99 61.04 60.99 60.85 60.43 59.88 59.40 59.19 58.84 58.47 58.18 58.17 58.08 57.72 57.30 57.08 56.87 56.41 55.74 55.12 54.56 54.04 53.46 52.97 52.56 52.23 51.91 51.73 51.42 50.90 50.05 49.05 48.23 47.46 46.82 46.11 45.32 44.45 43.41 42.23 41.18 40.13 39.14 38.40 37.68 37.22 36.99 36.54 36.21 36.17 36.57 36.11 35.75 35.42 34.92 34.68
58.97 59.20 59.41 59.66 59.93 59.96 59.90 59.85 59.87 59.98 60.28 60.63 60.82 60.88 60.83 60.70 60.40 59.93 59.50 59.14 58.83 58.47 58.01 57.67 57.65 57.40 57.26 56.91 56.65 56.31 55.97 55.43 54.67 54.12 53.54 53.09 52.63 52.32 51.99 51.82 51.64 51.16 50.44 49.27 48.39 47.62 46.94 46.26 45.39 44.48 43.53 42.55 41.34 40.33 39.44 38.67 38.12 37.70 37.23 36.89 36.26 35.66 35.22 35.12 35.02 34.95 34.73 34.27 34.21
58.83 59.08 59.34 59.70 59.88 59.94 59.85 59.76 59.78 59.93 60.28 60.68 60.60 60.50 60.41 60.26 59.88 59.37 58.92 58.65 58.38 58.08 57.65 57.09 56.86 56.71 56.46 56.33 55.99 55.70 55.36 55.06 54.30 53.74 53.25 52.88 52.48 52.25 52.09 52.00 51.57 50.72 49.62 48.46 47.83 47.14 46.34 45.55 44.56 43.53 42.47 41.50 40.44 39.53 38.79 38.30 37.86 37.44 37.10 36.80 35.90 35.28 34.92 34.74 34.49 34.19 33.78 33.46 33.40
58.67 59.01 59.38 59.85 59.94 59.92 59.89 59.82 59.90 59.93 60.18 60.44 60.23 60.12 60.01 59.75 59.34 58.89 58.58 58.41 58.12 57.63 57.08 56.58 56.20 55.91 55.75 55.53 55.32 55.11 54.84 54.65 54.00 53.48 53.04 52.85 52.58 52.48 52.32 51.98 50.95 49.81 48.68 47.78 47.20 46.43 45.59 44.72 43.53 42.64 41.82 40.89 39.93 39.12 38.52 38.09 37.65 37.10 36.63 36.55 35.86 35.46 35.22 34.95 34.50 33.91 33.42 33.11 33.25
58.53 58.98 59.52 59.88 60.01 60.04 59.93 59.95 59.95 60.00 60.00 60.18 60.00 59.79 59.63 59.38 59.10 58.71 58.49 58.30 57.80 57.26 56.58 56.02 55.72 55.42 55.20 54.98 54.77 54.59 54.44 54.30 53.81 53.58 53.31 53.17 52.94 52.62 52.03 51.09 49.69 48.49 47.54 46.74 46.09 45.41 44.62 43.67 42.56 41.27 40.30 39.87 39.49 39.00 38.54 38.11 37.54 36.97 36.47 36.22 36.06 35.82 35.40 34.94 34.41 33.94 33.65 33.53 33.48
58.46 58.98 59.63 59.93 60.00 59.88 59.76 59.86 59.90 59.77 59.72 59.73 59.65 59.60 59.43 59.31 59.10 58.83 58.50 58.16 57.49 56.79 56.15 55.74 55.39 55.14 54.91 54.77 54.50 54.28 54.10 53.92 53.64 53.53 53.42 53.19 52.48 51.55 50.53 49.38 48.26 47.29 46.49 45.78 44.83 44.03 43.04 41.66 39.89 38.14 37.16 37.38 38.74 38.82 38.36 38.10 37.69 37.19 36.67 36.40 36.27 35.86 35.29 34.77 34.48 34.15 34.03 34.11 34.11
58.46 59.11 59.72 60.11 59.93 59.81 59.76 59.75 59.58 59.53 59.39 59.36 59.40 59.39 59.31 59.14 58.92 58.71 58.40 57.86 57.20 56.55 56.10 55.87 55.49 55.08 54.75 54.48 54.22 54.00 53.82 53.55 53.28 53.03 52.73 51.96 50.80 49.62 48.58 47.92 47.16 46.40 45.65 45.02 44.45 43.55 42.13 39.96 37.49 36.03 35.81 37.04 38.66 38.72 38.24 37.96 37.69 37.39 37.03 36.78 36.31 35.73 35.14 34.75 34.56 34.33 34.26 34.37 34.54
58.49 59.10 59.46 59.77 59.72 59.70 59.66 59.63 59.34 59.22 59.13 59.21 59.29 59.14 59.05 58.90 58.77 58.55 58.20 57.69 57.16 56.66 56.28 56.10 55.70 55.36 54.84 54.32 53.90 53.68 53.44 53.20 52.66 51.96 50.96 49.72 48.67 47.89 47.34 46.91 46.36 45.73 45.32 45.24 45.86 45.40 44.10 42.14 39.95 38.01 37.13 38.28 39.02 38.74 38.23 37.96 37.77 37.61 37.44 37.15 36.54 35.88 35.21 34.71 34.47 34.39 34.33 34.28 34.30
58.56 58.92 59.24 59.32 59.41 59.43 59.35 59.18 59.06 58.99 59.01 59.06 58.97 58.92 58.81 58.68 58.63 58.33 57.94 57.39 56.96 56.56 56.30 56.02 55.62 55.13 54.56 54.02 53.49 53.02 52.70 52.40 51.65 50.51 49.28 48.06 47.17 46.67 46.42 46.24 45.74 45.07 44.96 45.99 46.64 46.35 45.57 44.66 43.24 41.35 39.61 39.03 38.99 38.68 38.21 37.90 37.78 37.58 37.41 37.13 36.64 35.98 35.38 34.84 34.41 34.40 34.45 34.40 34.44
58.44 58.78 59.00 59.10 59.08 59.03 58.99 58.96 58.93 58.83 58.75 58.83 58.63 58.56 58.57 58.54 58.41 58.05 57.53 56.91 56.73 56.41 56.07 55.62 55.02 54.31 53.71 53.43 52.80 52.12 51.42 50.78 49.94 48.95 48.06 47.24 46.63 46.09 45.67 45.46 44.83 44.49 44.92 46.65 47.04 46.82 46.26 45.65 44.84 43.34 41.39 39.33 38.88 38.42 38.09 37.66 37.35 37.14 36.91 36.56 36.10 35.51 34.96 34.53 34.35 34.55 34.84 34.76 34.75
58.47 58.63 58.68 58.74 58.60 58.61 58.61 58.61 58.46 58.47 58.38 58.41 58.23 58.36 58.40 58.40 57.98 57.59 57.14 56.63 56.38 56.03 55.53 54.98 54.23 53.57 53.12 52.72 51.94 50.82 49.69 48.73 48.13 47.63 47.26 46.96 46.51 45.84 45.21 44.66 44.15 44.62 45.83 47.47 47.52 47.21 46.73 46.21 45.30 44.07 42.43 40.11 38.53 37.74 37.46 37.16 36.92 36.66 36.36 35.98 35.38 34.67 34.17 34.21 34.66 35.00 35.07 34.98 34.89
58.39 58.39 58.41 58.27 58.24 58.21 58.23 58.07 57.92 58.04 58.13 58.06 58.14 58.17 58.10 57.88 57.52 57.15 56.75 56.38 55.80 55.31 54.75 54.22 53.67 53.05 52.30 51.48 50.50 49.41 48.36 47.58 47.22 46.92 46.70 46.48 45.94 45.26 44.45 43.76 43.84 45.09 46.70 48.04 47.82 47.43 46.90 46.29 45.38 44.32 43.02 41.27 38.91 37.83 37.33 37.01 36.59 36.21 35.82 35.52 34.95 34.40 34.06 34.15 34.59 34.92 35.05 34.91 34.59
58.22 58.20 58.12 57.97 57.91 57.83 57.67 57.63 57.73 57.86 58.03 58.01 57.96 57.86 57.59 57.27 56.99 56.62 56.20 55.71 55.05 54.46 53.85 53.35 52.64 51.93 51.04 50.24 49.00 47.95 47.25 47.02 46.79 46.58 46.20 45.85 45.13 44.36 43.76 43.62 44.08 45.35 46.97 48.13 47.87 47.43 46.90 46.20 45.29 44.32 43.23 41.85 39.36 37.76 36.81 36.46 36.05 35.65 35.33 35.13 34.54 34.17 34.07 34.26 34.26 34.26 34.33 34.35 33.92
57.96 57.96 57.86 57.74 57.78 57.60 57.48 57.59 57.79 57.93 57.95 57.93 57.73 57.38 57.07 56.74 56.38 56.03 55.65 55.15 54.47 53.72 52.97 52.06 51.32 50.64 49.96 49.16 48.14 47.22 46.65 46.47 46.46 46.45 46.27 45.64 44.79 43.88 43.34 43.50 44.29 45.61 47.02 48.13 47.83 47.47 46.94 46.15 45.17 44.19 43.19 41.98 39.66 37.78 36.52 36.16 35.69 35.35 35.13 34.95 34.51 34.34 34.15 34.17 33.97 33.92 33.67 33.30 32.82
57.98 58.01 57.90 57.81 57.67 57.53 57.62 57.84 57.88 57.86 57.70 57.50 57.26 56.86 56.45 56.11 55.82 55.51 55.15 54.53 53.65 52.64 51.82 50.91 50.34 49.68 48.92 48.08 47.50 46.88 46.44 46.13 46.21 46.20 46.06 45.38 44.19 43.44 43.29 43.76 44.55 45.74 47.02 48.01 47.79 47.38 46.77 45.98 45.00 44.07 43.10 41.98 39.71 37.63 36.11 36.04 35.67 35.40 35.11 34.83 34.43 34.12 34.13 34.54 34.05 33.58 33.14 32.61 31.95
58.03 58.23 58.12 57.80 57.54 57.46 57.55 57.72 57.63 57.51 57.34 57.15 56.78 56.37 55.99 55.64 55.29 54.83 54.32 53.56 52.50 51.55 50.68 50.20 49.54 48.80 48.00 47.47 47.02 46.58 46.36 46.22 46.34 46.29 45.90 44.96 43.93 43.56 43.68 44.24 44.95 46.10 47.28 48.06 47.74 47.25 46.59 45.72 44.87 43.94 42.94 41.86 39.47 37.51 36.24 36.03 35.97 35.66 35.26 34.71 34.28 33.97 33.71 33.52 33.49 33.22 32.73 32.19 31.59
58.02 58.13 58.02 57.74 57.54 57.48 57.48 57.48 57.39 57.23 56.99 56.56 56.28 55.94 55.49 55.01 54.39 53.80 53.11 52.34 51.59 50.84 50.19 49.71 49.01 48.31 47.74 47.34 46.98 46.76 46.67 46.79 46.35 45.70 44.97 44.24 43.97 43.87 44.12 44.56 45.26 46.49 47.63 48.02 47.61 46.99 46.29 45.51 44.70 43.81 42.81 41.61 39.07 37.23 36.20 35.80 35.78 35.52 35.14 34.51 34.04 33.81 33.56 33.27 33.00 32.58 32.20 31.72 31.37
57.97 57.95 57.81 57.58 57.58 57.54 57.44 57.32 57.10 56.81 56.48 56.10 55.71 55.32 54.82 54.28 53.56 52.84 52.16 51.43 50.75 50.31 49.83 49.22 48.69 48.13 47.69 47.29 47.03 46.89 46.71 46.49 45.88 45.18 44.62 44.15 44.14 44.26 44.38 44.55 45.35 46.54 47.59 47.80 47.31 46.73 46.11 45.38 44.53 43.60 42.44 40.79 38.30 36.88 36.03 35.58 35.38 35.07 34.61 34.05 33.82 33.64 33.45 33.21 32.94 32.38 32.02 31.69 31.55
57.88 57.82 57.67 57.48 57.50 57.43 57.27 57.00 56.69 56.39 55.96 55.58 55.09 54.60 54.01 53.33 52.73 52.04 51.45 50.77 50.15 49.58 48.92 48.34 47.82 47.33 47.03 46.72 46.63 46.63 46.45 45.92 45.31 44.83 44.49 44.49 44.35 44.25 44.20 44.45 45.16 46.36 47.28 47.49 46.96 46.51 45.85 45.17 44.28 43.23 41.77 39.47 37.46 36.49 36.14 35.77 35.43 34.77 34.17 33.77 33.63 33.30 33.17 33.17 32.76 32.19 31.73 31.49 31.42
57.68 57.65 57.58 57.46 57.48 57.29 57.06 56.79 56.40 56.00 55.47 55.07 54.49 53.86 53.13 52.40 51.81 51.30 50.78 50.15 49.54 48.75 48.04 47.38 46.94 46.54 46.27 46.14 46.14 46.05 45.96 45.66 45.01 44.70 44.62 44.70 44.61 44.38 44.23 44.35 45.02 45.92 46.71 47.10 46.65 46.12 45.51 44.87 43.94 42.60 40.66 38.00 36.52 35.97 35.72 35.47 35.18 34.57 33.90 33.53 33.38 33.12 32.87 32.87 32.30 31.64 31.17 30.98 31.73
57.63 57.66 57.67 57.60 57.44 57.15 56.83 56.52 56.02 55.48 54.99 54.49 53.86 53.14 52.50 51.73 51.10 50.60 50.18 49.63 48.88 48.04 47.16 46.63 46.27 45.96 45.92 45.83 45.79 45.61 45.53 45.40 45.22 44.92 44.70 44.74 44.74 44.51 44.28 44.17 44.66 45.38 46.10 46.58 46.30 45.82 45.21 44.53 43.44 41.98 39.88 36.97 35.90 35.46 35.33 35.07 34.58 34.18 33.85 33.60 33.33 32.83 32.43 32.19 31.74 31.45 31.71 32.42 34.83
57.47 57.68 57.75 57.64 57.24 56.89 56.44 56.04 55.54 55.04 54.50 53.87 53.10 52.38 51.70 51.06 50.52 50.11 49.69 49.37 48.53 47.56 46.80 46.23 45.87 45.74 45.70 45.66 45.44 45.17 45.09 45.18 45.35 45.27 45.01 44.79 44.87 44.73 44.50 44.13 44.44 44.94 45.61 46.05 45.83 45.43 44.79 44.07 43.02 41.73 39.88 37.17 35.71 35.22 35.09 34.70 34.08 33.69 33.46 33.42 33.04 32.41 31.77 31.36 31.31 31.51 32.25 33.80 37.16
57.45 57.60 57.73 57.58 57.06 56.53 55.99 55.54 55.09 54.59 53.91 53.15 52.30 51.57 51.03 50.48 49.98 49.66 49.38 49.02 48.21 47.46 46.67 46.01 45.70 45.61 45.61 45.48 45.04 44.69 44.56 44.78 44.96 45.18 45.27 45.01 45.09 45.09 44.81 44.27 44.27 44.63 45.13 45.62 45.44 45.05 44.37 43.65 42.69 41.53 39.75 36.96 35.48 35.02 34.92 34.44 33.78 33.39 33.16 33.08 32.66 32.03 31.35 30.96 31.04 31.30 31.88 32.99 35.97
57.58 57.48 57.34 57.24 56.79 56.21 55.63 55.09 54.55 53.96 53.24 52.34 51.57 51.07 50.62 50.07 49.58 49.12 48.81 48.40 47.73 47.16 46.54 46.01 45.57 45.35 45.22 45.17 44.74 44.38 44.16 44.21 44.52 44.88 45.05 45.05 45.05 45.04 44.90 44.37 44.10 44.24 44.56 45.05 45.01 44.67 44.11 43.31 42.40 41.36 39.63 36.79 35.21 34.69 34.59 34.16 33.50 33.02 32.66 32.54 32.23 31.74 31.22 30.68 30.70 31.02 31.33 31.79 32.91
MSLP
1010.62 1010.78 1010.94 1011.10 1011.30 1011.42 1011.54 1011.66 1011.78 1011.90 1011.98 1012.14 1012.34 1012.50 1012.62 1012.74 1012.82 1012.94 1013.02 1013.18 1013.30 1013.42 1013.54 1013.66 1013.74 1013.86 1014.02 1014.14 1014.26 1014.42 1014.58 1014.74 1014.90 1015.06 1015.22 1015.38 1015.58 1015.78 1015.94 1016.06 1016.22 1016.46 1016.70 1016.94 1017.18 1017.42 1017.66 1017.86 1018.06 1018.34 1018.54 1018.74 1018.94 1019.06 1019.22 1019.26 1019.34 1019.42 1019.54 1019.78 1019.94 1020.06 1020.22 1020.30 1020.38 1020.50 1020.62 1020.74 1020.90
1010.42 1010.58 1010.74 1010.90 1011.06 1011.22 1011.38 1011.54 1011.66 1011.74 1011.82 1011.94 1012.10 1012.26 1012.38 1012.54 1012.66 1012.78 1012.90 1013.02 1013.14 1013.22 1013.34 1013.50 1013.62 1013.74 1013.90 1014.06 1014.18 1014.34 1014.50 1014.62 1014.78 1014.98 1015.14 1015.34 1015.50 1015.70 1015.86 1016.02 1016.22 1016.50 1016.78 1017.02 1017.22 1017.50 1017.70 1017.90 1018.06 1018.34 1018.62 1018.82 1018.94 1019.10 1019.22 1019.26 1019.30 1019.42 1019.66 1019.86 1019.98 1020.10 1020.22 1020.38 1020.50 1020.54 1020.66 1020.82 1020.94
1010.22 1010.34 1010.54 1010.70 1010.90 1011.06 1011.22 1011.38 1011.50 1011.62 1011.70 1011.78 1011.94 1012.06 1012.22 1012.34 1012.50 1012.58 1012.74 1012.82 1012.94 1013.06 1013.22 1013.34 1013.50 1013.62 1013.78 1013.94 1014.06 1014.22 1014.38 1014.54 1014.74 1014.94 1015.10 1015.34 1015.50 1015.66 1015.82 1016.06 1016.30 1016.54 1016.78 1017.02 1017.26 1017.50 1017.70 1017.94 1018.10 1018.34 1018.62 1018.86 1018.98 1019.14 1019.22 1019.22 1019.30 1019.46 1019.66 1019.90 1020.02 1020.18 1020.30 1020.46 1020.54 1020.62 1020.74 1020.90 1021.06
1009.98 1010.18 1010.34 1010.50 1010.70 1010.82 1010.98 1011.10 1011.30 1011.46 1011.54 1011.66 1011.78 1011.94 1012.06 1012.18 1012.30 1012.42 1012.54 1012.66 1012.82 1012.94 1013.06 1013.18 1013.34 1013.50 1013.66 1013.82 1014.02 1014.22 1014.34 1014.50 1014.70 1014.90 1015.06 1015.30 1015.50 1015.66 1015.86 1016.10 1016.38 1016.62 1016.90 1017.10 1017.34 1017.54 1017.74 1017.94 1018.14 1018.38 1018.62 1018.86 1019.02 1019.14 1019.22 1019.26 1019.34 1019.50 1019.70 1019.86 1020.02 1020.18 1020.34 1020.50 1020.58 1020.74 1020.90 1021.06 1021.22
1009.78 1009.94 1010.06 1010.26 1010.42 1010.58 1010.74 1010.94 1011.10 1011.26 1011.38 1011.50 1011.66 1011.78 1011.94 1012.02 1012.14 1012.26 1012.42 1012.58 1012.70 1012.78 1012.90 1013.02 1013.14 1013.30 1013.46 1013.66 1013.94 1014.10 1014.30 1014.46 1014.62 1014.82 1015.06 1015.30 1015.50 1015.74 1015.94 1016.22 1016.46 1016.70 1016.94 1017.14 1017.34 1017.58 1017.78 1017.98 1018.22 1018.46 1018.66 1018.86 1019.02 1019.14 1019.22 1019.30 1019.38 1019.50 1019.70 1019.86 1020.06 1020.22 1020.38 1020.58 1020.70 1020.86 1020.98 1021.18 1021.34
1009.54 1009.70 1009.82 1010.02 1010.22 1010.38 1010.58 1010.74 1010.94 1011.06 1011.22 1011.38 1011.54 1011.70 1011.78 1011.90 1012.02 1012.18 1012.30 1012.46 1012.54 1012.62 1012.78 1012.86 1012.98 1013.14 1013.30 1013.58 1013.78 1014.06 1014.22 1014.38 1014.58 1014.78 1015.02 1015.34 1015.54 1015.78 1016.06 1016.30 1016.50 1016.70 1016.94 1017.18 1017.38 1017.58 1017.78 1017.98 1018.26 1018.50 1018.74 1018.90 1019.06 1019.18 1019.26 1019.34 1019.42 1019.58 1019.78 1019.94 1020.06 1020.26 1020.46 1020.62 1020.78 1020.94 1021.14 1021.30 1021.46
1009.34 1009.50 1009.70 1009.90 1010.06 1010.22 1010.42 1010.62 1010.78 1010.94 1011.06 1011.22 1011.38 1011.54 1011.66 1011.78 1011.90 1012.06 1012.22 1012.30 1012.46 1012.58 1012.66 1012.78 1012.86 1013.02 1013.22 1013.46 1013.70 1013.94 1014.10 1014.30 1014.50 1014.74 1015.02 1015.34 1015.62 1015.86 1016.06 1016.34 1016.50 1016.70 1016.94 1017.14 1017.34 1017.58 1017.78 1017.98 1018.26 1018.50 1018.70 1018.86 1019.06 1019.22 1019.34 1019.38 1019.50 1019.66 1019.82 1020.02 1020.18 1020.34 1020.50 1020.74 1020.90 1021.06 1021.22 1021.38 1021.54
1009.10 1009.30 1009.50 1009.66 1009.86 1010.06 1010.26 1010.42 1010.62 1010.78 1010.94 1011.06 1011.22 1011.34 1011.50 1011.66 1011.78 1011.94 1012.10 1012.26 1012.38 1012.50 1012.54 1012.66 1012.74 1012.86 1013.06 1013.26 1013.54 1013.78 1013.98 1014.22 1014.42 1014.70 1015.02 1015.34 1015.62 1015.86 1016.06 1016.30 1016.50 1016.70 1016.94 1017.14 1017.34 1017.54 1017.78 1018.02 1018.22 1018.46 1018.62 1018.78 1019.02 1019.22 1019.34 1019.38 1019.50 1019.70 1019.90 1020.10 1020.26 1020.46 1020.62 1020.78 1020.94 1021.10 1021.26 1021.42 1021.58
1009.02 1009.14 1009.30 1009.50 1009.66 1009.90 1010.06 1010.26 1010.46 1010.62 1010.82 1010.94 1011.06 1011.22 1011.34 1011.50 1011.70 1011.86 1012.02 1012.18 1012.30 1012.34 1012.42 1012.50 1012.62 1012.74 1012.90 1013.10 1013.34 1013.62 1013.86 1014.10 1014.38 1014.70 1015.02 1015.26 1015.54 1015.78 1016.02 1016.22 1016.46 1016.70 1016.94 1017.14 1017.30 1017.50 1017.74 1018.02 1018.22 1018.38 1018.50 1018.70 1018.94 1019.18 1019.34 1019.46 1019.62 1019.78 1019.98 1020.18 1020.34 1020.54 1020.70 1020.90 1021.06 1021.18 1021.34 1021.50 1021.66
1008.90 1009.06 1009.22 1009.42 1009.62 1009.78 1009.94 1010.14 1010.34 1010.50 1010.66 1010.82 1010.94 1011.06 1011.22 1011.38 1011.58 1011.74 1011.90 1012.02 1012.14 1012.26 1012.34 1012.42 1012.50 1012.66 1012.86 1013.06 1013.26 1013.50 1013.78 1014.06 1014.34 1014.66 1014.94 1015.22 1015.46 1015.66 1015.90 1016.10 1016.34 1016.62 1016.86 1017.06 1017.22 1017.42 1017.66 1017.94 1018.18 1018.34 1018.50 1018.70 1018.94 1019.14 1019.34 1019.50 1019.70 1019.90 1020.06 1020.22 1020.42 1020.62 1020.78 1020.94 1021.06 1021.22 1021.34 1021.50 1021.66
1008.74 1008.94 1009.10 1009.30 1009.46 1009.66 1009.86 1010.06 1010.26 1010.42 1010.58 1010.74 1010.86 1010.98 1011.14 1011.30 1011.46 1011.62 1011.74 1011.86 1012.06 1012.22 1012.26 1012.34 1012.46 1012.62 1012.78 1013.02 1013.22 1013.46 1013.70 1014.02 1014.30 1014.62 1014.86 1015.10 1015.34 1015.58 1015.78 1016.02 1016.22 1016.46 1016.66 1016.90 1017.06 1017.34 1017.58 1017.82 1018.06 1018.30 1018.50 1018.70 1018.94 1019.18 1019.34 1019.54 1019.74 1019.94 1020.10 1020.30 1020.46 1020.62 1020.82 1020.98 1021.10 1021.22 1021.38 1021.54 1021.70
1008.62 1008.78 1008.94 1009.14 1009.34 1009.50 1009.78 1009.98 1010.14 1010.30 1010.46 1010.62 1010.74 1010.86 1011.06 1011.22 1011.34 1011.50 1011.66 1011.78 1011.94 1012.06 1012.18 1012.22 1012.34 1012.50 1012.74 1012.94 1013.22 1013.42 1013.70 1013.98 1014.26 1014.50 1014.78 1015.06 1015.30 1015.54 1015.78 1015.98 1016.18 1016.38 1016.58 1016.78 1016.94 1017.14 1017.38 1017.66 1017.94 1018.18 1018.46 1018.70 1018.94 1019.18 1019.42 1019.62 1019.78 1019.98 1020.18 1020.34 1020.50 1020.66 1020.82 1020.98 1021.14 1021.26 1021.42 1021.58 1021.74
1008.46 1008.66 1008.86 1009.02 1009.22 1009.42 1009.66 1009.86 1010.02 1010.18 1010.34 1010.50 1010.62 1010.78 1010.94 1011.10 1011.22 1011.38 1011.54 1011.74 1011.86 1011.94 1012.06 1012.14 1012.26 1012.46 1012.66 1012.90 1013.14 1013.42 1013.70 1013.98 1014.22 1014.50 1014.78 1015.06 1015.30 1015.54 1015.78 1015.98 1016.18 1016.34 1016.50 1016.62 1016.78 1016.94 1017.22 1017.50 1017.78 1018.06 1018.38 1018.70 1018.94 1019.18 1019.38 1019.62 1019.78 1019.98 1020.18 1020.34 1020.54 1020.70 1020.86 1020.98 1021.14 1021.30 1021.46 1021.62 1021.78
1008.34 1008.54 1008.70 1008.90 1009.06 1009.30 1009.50 1009.70 1009.90 1010.06 1010.22 1010.34 1010.50 1010.62 1010.82 1011.02 1011.14 1011.30 1011.46 1011.66 1011.78 1011.90 1011.98 1012.10 1012.26 1012.46 1012.62 1012.82 1013.10 1013.38 1013.66 1013.94 1014.22 1014.50 1014.78 1015.02 1015.26 1015.54 1015.78 1016.02 1016.18 1016.34 1016.50 1016.58 1016.70 1016.90 1017.14 1017.38 1017.66 1017.98 1018.34 1018.62 1018.94 1019.22 1019.42 1019.62 1019.78 1019.94 1020.14 1020.34 1020.50 1020.70 1020.86 1021.02 1021.14 1021.30 1021.46 1021.66 1021.82
1008.22 1008.38 1008.58 1008.78 1008.94 1009.18 1009.38 1009.58 1009.78 1009.94 1010.06 1010.22 1010.34 1010.50 1010.70 1010.90 1011.06 1011.18 1011.34 1011.54 1011.70 1011.78 1011.94 1012.10 1012.30 1012.50 1012.66 1012.82 1013.06 1013.34 1013.66 1013.90 1014.22 1014.46 1014.74 1015.02 1015.30 1015.54 1015.78 1016.02 1016.22 1016.34 1016.46 1016.50 1016.66 1016.86 1017.06 1017.34 1017.62 1017.94 1018.26 1018.58 1018.90 1019.18 1019.42 1019.66 1019.82 1019.98 1020.14 1020.30 1020.46 1020.62 1020.78 1021.02 1021.18 1021.34 1021.50 1021.66 1021.82
1008.06 1008.22 1008.42 1008.62 1008.86 1009.06 1009.22 1009.46 1009.62 1009.78 1009.94 1010.06 1010.18 1010.34 1010.54 1010.74 1010.90 1011.06 1011.22 1011.46 1011.62 1011.78 1011.94 1012.10 1012.34 1012.50 1012.70 1012.90 1013.10 1013.34 1013.62 1013.90 1014.14 1014.42 1014.70 1015.02 1015.34 1015.58 1015.82 1016.06 1016.22 1016.34 1016.42 1016.50 1016.66 1016.86 1017.06 1017.34 1017.58 1017.90 1018.22 1018.54 1018.86 1019.14 1019.38 1019.66 1019.86 1020.06 1020.18 1020.30 1020.46 1020.62 1020.78 1020.94 1021.14 1021.34 1021.50 1021.66 1021.82
1007.94 1008.10 1008.30 1008.50 1008.70 1008.90 1009.10 1009.30 1009.46 1009.62 1009.78 1009.94 1010.06 1010.22 1010.38 1010.58 1010.74 1010.94 1011.14 1011.34 1011.54 1011.78 1011.94 1012.10 1012.34 1012.50 1012.74 1012.98 1013.18 1013.34 1013.62 1013.90 1014.10 1014.34 1014.62 1014.94 1015.22 1015.54 1015.78 1015.98 1016.18 1016.30 1016.38 1016.46 1016.62 1016.86 1017.10 1017.34 1017.58 1017.86 1018.22 1018.54 1018.86 1019.14 1019.42 1019.66 1019.90 1020.06 1020.22 1020.34 1020.50 1020.62 1020.78 1020.94 1021.14 1021.34 1021.50 1021.66 1021.82
1007.86 1008.02 1008.18 1008.34 1008.58 1008.78 1008.98 1009.18 1009.34 1009.50 1009.66 1009.78 1009.94 1010.06 1010.26 1010.46 1010.62 1010.78 1011.02 1011.22 1011.46 1011.70 1011.94 1012.18 1012.34 1012.54 1012.78 1012.98 1013.22 1013.38 1013.62 1013.82 1014.06 1014.30 1014.58 1014.86 1015.14 1015.46 1015.74 1015.94 1016.10 1016.22 1016.34 1016.46 1016.62 1016.86 1017.10 1017.38 1017.66 1017.94 1018.22 1018.58 1018.90 1019.18 1019.42 1019.66 1019.90 1020.06 1020.22 1020.34 1020.50 1020.62 1020.78 1020.98 1021.14 1021.34 1021.50 1021.66 1021.82
1007.78 1007.94 1008.06 1008.26 1008.46 1008.66 1008.90 1009.06 1009.22 1009.38 1009.54 1009.66 1009.78 1009.98 1010.18 1010.34 1010.50 1010.74 1010.94 1011.22 1011.42 1011.66 1011.90 1012.14 1012.38 1012.62 1012.78 1012.98 1013.18 1013.38 1013.58 1013.78 1014.06 1014.30 1014.54 1014.78 1015.06 1015.34 1015.66 1015.90 1016.06 1016.22 1016.34 1016.46 1016.66 1016.90 1017.10 1017.38 1017.66 1017.94 1018.26 1018.62 1018.94 1019.22 1019.50 1019.78 1019.94 1020.10 1020.22 1020.34 1020.50 1020.66 1020.86 1021.02 1021.22 1021.34 1021.50 1021.66 1021.82
1007.66 1007.78 1007.98 1008.14 1008.34 1008.62 1008.82 1009.02 1009.18 1009.30 1009.46 1009.62 1009.78 1009.94 1010.06 1010.22 1010.46 1010.70 1010.94 1011.22 1011.42 1011.66 1011.94 1012.14 1012.38 1012.62 1012.86 1013.02 1013.22 1013.46 1013.66 1013.86 1014.06 1014.30 1014.50 1014.78 1015.06 1015.34 1015.54 1015.78 1015.98 1016.18 1016.34 1016.50 1016.70 1016.94 1017.22 1017.42 1017.70 1017.98 1018.30 1018.62 1018.94 1019.30 1019.58 1019.82 1020.02 1020.18 1020.30 1020.42 1020.58 1020.74 1020.90 1021.06 1021.22 1021.42 1021.58 1021.70 1021.86
1007.58 1007.74 1007.90 1008.06 1008.30 1008.54 1008.78 1008.94 1009.10 1009.22 1009.38 1009.54 1009.70 1009.86 1010.02 1010.22 1010.46 1010.70 1010.94 1011.18 1011.42 1011.70 1011.94 1012.22 1012.42 1012.62 1012.86 1013.06 1013.26 1013.50 1013.74 1013.94 1014.10 1014.30 1014.50 1014.78 1015.02 1015.22 1015.46 1015.66 1015.90 1016.06 1016.30 1016.50 1016.74 1016.94 1017.22 1017.50 1017.74 1018.06 1018.34 1018.66 1018.98 1019.30 1019.62 1019.86 1020.06 1020.22 1020.34 1020.50 1020.66 1020.82 1020.94 1021.10 1021.30 1021.46 1021.66 1021.78 1021.86
1007.50 1007.66 1007.78 1008.02 1008.22 1008.50 1008.70 1008.86 1009.06 1009.22 1009.34 1009.50 1009.66 1009.78 1009.98 1010.22 1010.46 1010.70 1010.94 1011.22 1011.46 1011.74 1011.98 1012.22 1012.46 1012.66 1012.86 1013.06 1013.26 1013.50 1013.74 1013.94 1014.18 1014.34 1014.50 1014.74 1014.94 1015.18 1015.34 1015.58 1015.82 1016.06 1016.26 1016.50 1016.74 1016.98 1017.22 1017.50 1017.78 1018.10 1018.38 1018.70 1019.06 1019.34 1019.62 1019.86 1020.06 1020.30 1020.46 1020.62 1020.78 1020.94 1021.06 1021.22 1021.34 1021.50 1021.66 1021.78 1021.90
1007.46 1007.62 1007.78 1007.94 1008.22 1008.42 1008.62 1008.78 1008.98 1009.18 1009.34 1009.50 1009.62 1009.78 1009.94 1010.22 1010.50 1010.66 1010.94 1011.22 1011.46 1011.74 1012.02 1012.26 1012.50 1012.66 1012.86 1013.06 1013.26 1013.50 1013.74 1013.94 1014.22 1014.34 1014.50 1014.74 1014.94 1015.18 1015.38 1015.62 1015.82 1016.02 1016.22 1016.50 1016.74 1016.98 1017.30 1017.62 1017.94 1018.22 1018.50 1018.78 1019.10 1019.38 1019.66 1019.86 1020.06 1020.30 1020.50 1020.66 1020.82 1021.02 1021.18 1021.34 1021.50 1021.66 1021.74 1021.82 1021.94
1007.38 1007.54 1007.70 1007.94 1008.18 1008.34 1008.54 1008.74 1008.94 1009.10 1009.30 1009.42 1009.54 1009.74 1009.94 1010.22 1010.46 1010.66 1010.94 1011.18 1011.46 1011.74 1011.98 1012.22 1012.50 1012.70 1012.94 1013.10 1013.30 1013.46 1013.66 1013.90 1014.14 1014.34 1014.58 1014.78 1015.02 1015.22 1015.46 1015.66 1015.86 1016.06 1016.30 1016.50 1016.74 1017.02 1017.30 1017.62 1017.98 1018.30 1018.58 1018.86 1019.10 1019.38 1019.66 1019.86 1020.06 1020.26 1020.50 1020.66 1020.86 1021.10 1021.30 1021.46 1021.62 1021.70 1021.82 1021.94 1021.98
1007.34 1007.50 1007.66 1007.90 1008.06 1008.26 1008.50 1008.66 1008.86 1009.06 1009.18 1009.30 1009.50 1009.70 1009.94 1010.14 1010.38 1010.62 1010.86 1011.14 1011.42 1011.66 1011.90 1012.14 1012.42 1012.62 1012.90 1013.06 1013.30 1013.46 1013.62 1013.78 1014.02 1014.26 1014.54 1014.86 1015.06 1015.30 1015.50 1015.78 1015.94 1016.18 1016.38 1016.58 1016.78 1016.98 1017.22 1017.50 1017.82 1018.18 1018.50 1018.78 1019.10 1019.42 1019.70 1019.94 1020.14 1020.30 1020.50 1020.66 1020.86 1021.10 1021.34 1021.54 1021.70 1021.82 1021.90 1021.98 1022.06
1007.34 1007.50 1007.66 1007.86 1008.02 1008.22 1008.38 1008.58 1008.78 1008.94 1009.06 1009.26 1009.50 1009.66 1009.86 1010.06 1010.30 1010.50 1010.78 1011.06 1011.34 1011.54 1011.78 1012.06 1012.34 1012.58 1012.82 1013.02 1013.22 1013.46 1013.66 1013.78 1013.98 1014.22 1014.50 1014.82 1015.10 1015.34 1015.58 1015.78 1016.06 1016.30 1016.50 1016.66 1016.86 1017.06 1017.22 1017.46 1017.70 1018.02 1018.34 1018.70 1019.06 1019.42 1019.78 1020.02 1020.18 1020.34 1020.50 1020.74 1020.94 1021.14 1021.38 1021.62 1021.78 1021.86 1021.94 1022.02 1022.06
1007.34 1007.50 1007.66 1007.82 1008.02 1008.18 1008.34 1008.50 1008.66 1008.86 1009.06 1009.26 1009.50 1009.66 1009.86 1010.02 1010.22 1010.46 1010.70 1010.94 1011.22 1011.50 1011.74 1011.94 1012.22 1012.50 1012.74 1012.94 1013.18 1013.42 1013.66 1013.86 1014.06 1014.26 1014.50 1014.78 1015.06 1015.34 1015.62 1015.86 1016.10 1016.34 1016.62 1016.78 1016.94 1017.10 1017.30 1017.50 1017.70 1017.98 1018.30 1018.62 1019.02 1019.34 1019.70 1019.98 1020.22 1020.38 1020.54 1020.78 1020.98 1021.18 1021.38 1021.58 1021.74 1021.86 1021.94 1022.02 1022.10
1007.30 1007.46 1007.66 1007.86 1008.06 1008.22 1008.34 1008.50 1008.70 1008.86 1009.06 1009.26 1009.46 1009.66 1009.82 1010.06 1010.22 1010.42 1010.62 1010.90 1011.14 1011.38 1011.66 1011.94 1012.18 1012.42 1012.66 1012.94 1013.18 1013.34 1013.62 1013.86 1014.06 1014.34 1014.58 1014.82 1015.06 1015.30 1015.58 1015.86 1016.14 1016.38 1016.62 1016.78 1016.94 1017.06 1017.26 1017.50 1017.70 1017.98 1018.26 1018.62 1018.98 1019.34 1019.66 1019.94 1020.18 1020.38 1020.58 1020.82 1021.02 1021.22 1021.42 1021.54 1021.66 1021.78 1021.94 1022.06 1022.18
1007.22 1007.38 1007.58 1007.82 1008.02 1008.22 1008.38 1008.54 1008.70 1008.90 1009.06 1009.26 1009.50 1009.66 1009.90 1010.06 1010.30 1010.50 1010.66 1010.94 1011.14 1011.34 1011.66 1011.90 1012.14 1012.38 1012.66 1012.94 1013.14 1013.34 1013.62 1013.86 1014.10 1014.34 1014.62 1014.94 1015.14 1015.38 1015.66 1015.94 1016.18 1016.42 1016.62 1016.78 1016.94 1017.10 1017.26 1017.46 1017.70 1017.98 1018.30 1018.62 1019.02 1019.34 1019.66 1019.90 1020.10 1020.34 1020.58 1020.82 1021.06 1021.22 1021.42 1021.54 1021.66 1021.78 1021.86 1022.02 1022.18
1007.22 1007.34 1007.54 1007.78 1007.94 1008.14 1008.34 1008.50 1008.66 1008.90 1009.10 1009.34 1009.50 1009.70 1009.94 1010.14 1010.38 1010.58 1010.78 1010.98 1011.22 1011.38 1011.62 1011.86 1012.14 1012.42 1012.62 1012.86 1013.10 1013.34 1013.66 1013.90 1014.10 1014.38 1014.66 1014.94 1015.26 1015.54 1015.78 1016.02 1016.22 1016.46 1016.66 1016.82 1016.98 1017.14 1017.26 1017.46 1017.74 1018.06 1018.34 1018.70 1019.02 1019.30 1019.62 1019.86 1020.06 1020.34 1020.58 1020.78 1021.02 1021.22 1021.34 1021.50 1021.66 1021.78 1021.86 1022.02 1022.18
1007.26 1007.38 1007.54 1007.74 1007.94 1008.10 1008.30 1008.50 1008.66 1008.90 1009.10 1009.34 1009.54 1009.78 1009.98 1010.22 1010.42 1010.66 1010.86 1011.06 1011.30 1011.50 1011.74 1011.94 1012.22 1012.42 1012.66 1012.90 1013.14 1013.38 1013.66 1013.90 1014.14 1014.38 1014.62 1014.94 1015.26 1015.62 1015.90 1016.10 1016.30 1016.50 1016.74 1016.90 1017.02 1017.14 1017.30 1017.50 1017.78 1018.06 1018.38 1018.74 1019.06 1019.34 1019.62 1019.86 1020.06 1020.34 1020.54 1020.78 1021.02 1021.18 1021.34 1021.50 1021.58 1021.74 1021.86 1022.02 1022.18
1007.30 1007.42 1007.62 1007.78 1007.94 1008.10 1008.30 1008.50 1008.70 1008.90 1009.14 1009.38 1009.62 1009.82 1010.06 1010.26 1010.50 1010.70 1010.94 1011.14 1011.38 1011.66 1011.94 1012.14 1012.34 1012.58 1012.78 1013.06 1013.26 1013.46 1013.66 1013.94 1014.14 1014.38 1014.62 1014.94 1015.30 1015.66 1015.94 1016.14 1016.34 1016.58 1016.78 1016.90 1017.02 1017.18 1017.34 1017.50 1017.82 1018.10 1018.42 1018.78 1019.06 1019.34 1019.66 1019.86 1020.06 1020.34 1020.58 1020.78 1020.98 1021.14 1021.30 1021.42 1021.54 1021.70 1021.82 1021.98 1022.14
1007.34 1007.46 1007.66 1007.82 1008.02 1008.18 1008.34 1008.58 1008.78 1009.02 1009.22 1009.46 1009.70 1009.94 1010.10 1010.34 1010.54 1010.78 1011.02 1011.22 1011.50 1011.78 1011.98 1012.22 1012.42 1012.66 1012.94 1013.18 1013.34 1013.58 1013.78 1013.98 1014.18 1014.42 1014.66 1014.98 1015.34 1015.66 1015.94 1016.22 1016.46 1016.62 1016.78 1016.94 1017.06 1017.22 1017.34 1017.58 1017.90 1018.18 1018.50 1018.78 1019.10 1019.38 1019.66 1019.86 1020.06 1020.34 1020.62 1020.82 1020.98 1021.14 1021.26 1021.38 1021.50 1021.66 1021.78 1021.94 1022.06
1007.34 1007.50 1007.70 1007.90 1008.10 1008.30 1008.50 1008.74 1008.94 1009.14 1009.34 1009.62 1009.82 1010.02 1010.22 1010.38 1010.62 1010.86 1011.10 1011.34 1011.58 1011.78 1012.06 1012.26 1012.50 1012.70 1012.94 1013.14 1013.38 1013.62 1013.82 1014.06 1014.30 1014.54 1014.82 1015.10 1015.42 1015.70 1015.94 1016.22 1016.46 1016.66 1016.78 1016.94 1017.06 1017.22 1017.38 1017.62 1017.94 1018.22 1018.50 1018.78 1019.14 1019.42 1019.66 1019.86 1020.10 1020.34 1020.62 1020.82 1021.02 1021.18 1021.26 1021.38 1021.50 1021.66 1021.78 1021.94 1022.02
1007.42 1007.58 1007.78 1008.02 1008.22 1008.50 1008.66 1008.86 1009.06 1009.26 1009.50 1009.78 1009.94 1010.14 1010.34 1010.50 1010.74 1010.94 1011.18 1011.42 1011.66 1011.90 1012.14 1012.38 1012.62 1012.82 1013.06 1013.30 1013.50 1013.66 1013.86 1014.10 1014.38 1014.66 1014.94 1015.18 1015.46 1015.70 1015.98 1016.22 1016.50 1016.66 1016.82 1016.94 1017.06 1017.22 1017.42 1017.66 1017.94 1018.22 1018.50 1018.82 1019.18 1019.42 1019.66 1019.90 1020.14 1020.42 1020.66 1020.86 1021.02 1021.18 1021.26 1021.38 1021.54 1021.66 1021.78 1021.90 1022.02
1007.50 1007.66 1007.86 1008.14 1008.38 1008.62 1008.78 1008.98 1009.18 1009.38 1009.62 1009.82 1010.02 1010.22 1010.46 1010.62 1010.86 1011.10 1011.34 1011.54 1011.78 1012.02 1012.22 1012.50 1012.74 1012.94 1013.22 1013.46 1013.66 1013.78 1013.94 1014.10 1014.34 1014.66 1014.94 1015.18 1015.42 1015.70 1015.98 1016.26 1016.50 1016.70 1016.82 1016.94 1017.10 1017.22 1017.42 1017.66 1017.94 1018.22 1018.54 1018.90 1019.22 1019.46 1019.66 1019.90 1020.18 1020.46 1020.70 1020.90 1021.06 1021.18 1021.30 1021.38 1021.54 1021.70 1021.82 1021.94 1022.02
1007.54 1007.66 1007.90 1008.22 1008.50 1008.70 1008.86 1009.06 1009.22 1009.46 1009.66 1009.90 1010.06 1010.30 1010.54 1010.78 1011.06 1011.30 1011.50 1011.66 1011.94 1012.14 1012.34 1012.54 1012.74 1012.94 1013.18 1013.38 1013.62 1013.82 1014.02 1014.18 1014.38 1014.62 1014.90 1015.18 1015.38 1015.66 1015.94 1016.26 1016.50 1016.70 1016.82 1016.94 1017.10 1017.26 1017.46 1017.70 1017.94 1018.22 1018.54 1018.86 1019.18 1019.42 1019.70 1019.94 1020.22 1020.50 1020.74 1020.94 1021.10 1021.22 1021.30 1021.42 1021.58 1021.70 1021.86 1021.98 1022.06
1007.62 1007.78 1007.94 1008.26 1008.50 1008.74 1008.94 1009.10 1009.30 1009.50 1009.66 1009.94 1010.14 1010.34 1010.62 1010.90 1011.18 1011.42 1011.62 1011.78 1011.98 1012.22 1012.42 1012.62 1012.78 1012.94 1013.14 1013.34 1013.58 1013.86 1014.06 1014.26 1014.42 1014.62 1014.90 1015.14 1015.34 1015.54 1015.86 1016.22 1016.46 1016.66 1016.82 1016.98 1017.10 1017.26 1017.50 1017.70 1017.98 1018.26 1018.54 1018.82 1019.10 1019.38 1019.66 1019.98 1020.26 1020.54 1020.78 1020.94 1021.14 1021.26 1021.38 1021.50 1021.58 1021.74 1021.86 1021.94 1021.98
1007.66 1007.82 1008.06 1008.30 1008.54 1008.74 1008.94 1009.14 1009.30 1009.50 1009.70 1009.94 1010.22 1010.46 1010.70 1010.94 1011.22 1011.46 1011.66 1011.86 1012.02 1012.22 1012.42 1012.62 1012.82 1013.02 1013.22 1013.42 1013.66 1013.90 1014.14 1014.34 1014.50 1014.62 1014.86 1015.06 1015.26 1015.50 1015.78 1016.06 1016.34 1016.58 1016.78 1016.94 1017.10 1017.30 1017.50 1017.74 1018.02 1018.30 1018.54 1018.78 1019.06 1019.34 1019.62 1019.94 1020.26 1020.54 1020.78 1020.98 1021.18 1021.34 1021.46 1021.54 1021.66 1021.74 1021.86 1021.94 1021.90
1007.74 1007.90 1008.10 1008.34 1008.54 1008.78 1008.94 1009.14 1009.34 1009.54 1009.78 1010.02 1010.26 1010.50 1010.78 1011.02 1011.26 1011.50 1011.78 1011.94 1012.14 1012.34 1012.50 1012.70 1012.86 1013.06 1013.22 1013.46 1013.66 1013.90 1014.14 1014.34 1014.54 1014.66 1014.82 1015.02 1015.26 1015.50 1015.70 1015.94 1016.22 1016.46 1016.66 1016.90 1017.06 1017.26 1017.50 1017.74 1018.02 1018.26 1018.54 1018.82 1019.06 1019.30 1019.58 1019.90 1020.22 1020.54 1020.78 1020.98 1021.14 1021.34 1021.46 1021.62 1021.70 1021.78 1021.90 1022.02 1021.98
1007.82 1007.94 1008.14 1008.34 1008.54 1008.78 1008.98 1009.18 1009.34 1009.58 1009.78 1010.06 1010.30 1010.50 1010.78 1011.06 1011.34 1011.58 1011.82 1012.06 1012.30 1012.46 1012.62 1012.78 1012.94 1013.06 1013.22 1013.42 1013.66 1013.86 1014.06 1014.34 1014.54 1014.70 1014.86 1015.02 1015.26 1015.50 1015.70 1015.90 1016.10 1016.34 1016.58 1016.82 1017.02 1017.22 1017.46 1017.70 1017.98 1018.22 1018.50 1018.78 1019.06 1019.26 1019.54 1019.86 1020.22 1020.50 1020.74 1020.94 1021.06 1021.22 1021.38 1021.58 1021.70 1021.82 1021.94 1022.06 1022.10
Wind_Speed
10 9 8 7 7 6 6 6 5 5 5 6 6 6 6 6 6 5 5 5 5 5 5 5 6 6 7 9 10 10 10 10 10 10 9 9 8 8 8 7 7 7 8 9 8 8 7 7 6 5 4 4 4 4 3 3 3 4 4 4 3 3 4 5 5 5 5 4 3
11 10 9 8 7 6 6 6 5 5 5 5 6 6 6 5 5 5 5 5 5 5 5 5 6 7 8 10 10 10 10 10 10 10 9 9 8 8 7 7 7 9 10 10 9 8 7 7 6 5 4 4 4 4 3 3 4 4 4 4 3 3 3 4 5 5 5 4 3
11 10 10 9 8 7 7 6 6 6 6 5 5 5 6 5 5 5 5 5 5 5 5 5 6 8 9 10 10 10 10 10 10 10 9 8 8 7 7 7 9 10 10 9 8 7 7 7 6 5 5 4 4 4 4 4 4 4 4 4 3 3 3 4 4 4 4 4 4
11 11 10 10 10 10 9 7 7 7 7 5 5 5 5 5 5 5 5 5 6 6 6 6 7 8 9 10 10 10 9 9 10 9 8 7 7 8 8 9 10 10 9 9 8 8 8 7 6 5 5 5 5 4 4 4 4 4 4 3 3 3 3 3 4 4 4 4 4
12 12 11 10 11 11 10 8 8 8 7 6 5 5 5 5 4 4 5 6 6 6 7 8 8 8 9 10 11 11 10 10 9 9 8 8 8 9 10 11 10 10 9 9 9 9 8 7 5 4 4 5 4 4 4 4 4 4 4 3 3 3 3 4 4 4 4 4 3
12 12 11 10 11 10 9 8 9 9 7 6 6 6 6 5 5 5 6 6 6 7 8 8 8 8 9 11 11 11 10 10 9 8 9 9 9 10 11 11 10 10 9 10 10 10 9 7 5 4 4 4 3 4 4 5 4 4 4 4 3 3 3 4 4 4 4 5 4
12 12 12 11 11 11 10 9 9 9 8 7 8 8 8 7 6 7 7 7 6 6 7 7 7 8 9 11 11 11 10 9 9 9 10 10 10 10 11 10 10 10 10 10 10 9 8 7 6 5 5 4 4 4 5 5 5 5 5 4 4 4 4 4 4 4 5 6 5
11 12 12 12 12 11 11 10 9 9 9 8 8 9 9 8 8 8 8 7 6 6 6 6 7 9 10 11 11 11 10 10 9 10 10 11 11 11 11 11 10 10 10 10 10 9 8 7 5 5 5 5 4 4 5 5 5 6 6 5 4 4 4 4 4 4 5 6 6
10 11 12 11 11 11 11 11 10 10 9 9 9 9 10 9 9 9 9 7 7 6 6 6 8 9 11 12 11 11 10 10 11 11 11 11 12 11 11 10 11 11 10 9 10 9 8 6 5 5 5 4 4 5 5 6 7 7 6 6 5 4 4 4 4 5 5 6 6
10 11 11 11 11 11 11 11 11 10 10 10 10 10 10 9 10 9 9 7 7 7 7 7 8 10 11 11 11 11 10 11 11 12 12 11 12 12 11 10 11 11 10 9 9 9 8 6 6 5 5 4 5 5 6 7 8 7 6 5 5 5 5 5 5 5 5 5 6
10 11 11 10 11 11 11 11 10 10 10 10 10 10 10 10 10 9 8 8 8 8 9 9 10 10 11 10 11 11 11 11 11 12 12 11 12 12 11 11 11 11 11 10 10 9 8 6 7 7 6 5 5 6 7 8 8 8 7 5 6 6 6 5 5 5 5 5 6
10 10 10 10 11 11 11 11 10 10 10 10 10 10 10 10 10 10 9 9 10 10 10 10 11 11 11 10 11 11 11 12 12 12 12 12 12 12 11 11 12 12 12 11 10 9 8 8 8 8 8 7 6 6 7 8 8 8 8 7 7 7 6 6 6 5 5 5 6
10 10 10 10 11 11 11 11 10 10 10 10 10 10 10 10 10 10 10 10 10 10 9 10 11 11 11 11 11 11 11 12 12 12 11 12 11 11 11 11 11 11 11 11 10 9 8 9 9 9 9 8 6 6 7 8 8 9 9 8 8 7 7 7 7 6 6 6 6
10 10 10 11 11 11 11 11 10 10 10 10 10 10 10 10 10 10 10 10 10 9 9 10 10 10 10 11 12 12 12 12 12 12 12 11 11 11 11 11 11 11 10 9 9 9 9 9 10 10 10 9 8 8 8 8 8 8 9 9 8 8 8 7 7 7 7 7 6
10 10 11 11 11 11 11 11 10 9 10 10 10 10 10 9 10 10 10 10 10 9 9 9 9 9 10 12 12 13 12 12 12 12 12 11 11 11 11 10 10 10 9 9 9 9 9 10 10 10 10 10 9 8 8 8 8 8 8 8 8 8 8 8 7 7 7 7 6
10 11 11 11 11 11 11 11 9 9 9 10 10 10 10 9 9 10 10 10 9 8 8 9 9 9 10 11 12 13 12 12 12 12 12 12 11 11 11 11 10 10 10 9 9 9 9 10 10 10 10 10 9 9 8 8 7 7 7 7 8 8 8 8 8 7 7 7 6
11 11 11 11 12 12 11 11 9 9 9 9 10 10 10 9 9 9 10 10 9 8 8 9 9 10 10 11 11 11 12 12 12 12 12 12 12 12 11 11 10 10 10 9 9 10 10 10 10 10 10 10 9 9 8 8 7 7 7 8 8 8 8 8 8 7 7 7 6
11 11 11 12 12 12 12 11 10 9 9 10 10 10 9 9 9 9 9 10 9 10 10 10 10 10 11 11 10 10 10 11 11 12 12 12 12 12 11 11 10 10 9 9 10 10 11 11 10 10 10 9 9 8 8 8 7 7 8 8 8 8 8 8 7 7 7 6 6
11 11 11 12 12 12 12 11 10 10 10 10 10 9 9 9 9 9 9 9 10 10 11 11 10 10 11 11 11 10 10 11 12 12 12 12 12 12 11 11 10 9 9 9 10 11 11 11 11 11 10 9 9 8 8 8 7 8 8 8 8 7 7 7 7 7 6 6 6
10 11 11 11 11 11 11 11 10 10 9 9 9 9 9 9 9 10 10 10 10 11 11 11 10 10 10 11 11 10 10 10 11 12 12 12 12 12 11 11 10 10 9 9 10 11 11 11 11 11 11 11 10 10 9 8 8 8 7 7 7 7 7 7 7 6 6 6 6
10 10 10 11 11 11 11 10 10 9 9 9 9 9 9 9 10 10 10 10 11 11 11 11 11 11 11 11 11 11 10 9 10 11 12 12 12 12 12 11 10 10 10 10 10 11 11 11 11 11 11 11 11 10 10 9 8 8 7 6 6 7 7 7 7 7 6 6 5
8 9 9 10 10 10 10 10 9 9 9 9 9 9 9 10 10 11 11 11 11 11 11 10 11 11 11 11 11 11 10 9 10 11 11 11 11 11 11 10 10 10 10 10 11 11 11 11 11 11 11 11 10 10 10 9 9 8 8 7 7 7 7 7 7 6 6 5 5
7 8 9 9 10 10 10 10 9 9 9 9 9 9 10 11 11 11 11 11 11 11 10 10 10 10 11 11 11 11 11 10 10 10 10 10 10 10 10 10 10 11 11 10 10 11 11 11 11 11 10 10 10 10 10 10 9 9 8 8 8 8 7 7 6 6 5 5 4
7 8 9 9 10 11 11 10 10 10 9 9 9 10 11 12 12 12 12 12 11 11 11 9 9 10 10 10 10 11 11 12 11 11 10 10 10 10 10 9 9 10 9 9 10 11 11 10 10 10 10 10 10 10 10 9 9 9 9 9 9 8 7 6 6 5 5 4 4
8 8 9 9 10 11 11 11 11 10 10 9 10 11 12 13 13 13 13 13 12 12 12 11 11 10 10 10 10 10 11 12 12 12 12 11 10 10 10 9 8 8 8 9 13 15 15 14 12 10 10 10 10 9 9 9 9 9 9 9 9 8 7 6 6 5 5 4 4
8 9 9 10 10 11 11 11 11 10 10 10 11 12 13 13 13 13 14 13 13 13 13 12 11 11 10 10 10 10 10 10 11 12 12 12 12 11 10 8 7 7 7 11 16 19 19 19 16 14 11 10 10 10 9 8 8 9 9 9 9 8 8 7 6 5 4 4 4
8 9 10 10 10 11 11 11 11 10 10 11 12 13 13 13 13 13 14 14 14 13 13 12 11 11 10 10 11 11 10 9 10 11 12 13 13 12 10 8 7 6 8 14 19 21 21 21 20 17 14 10 10 10 9 8 9 9 9 8 8 8 8 7 7 6 5 4 5
8 9 10 10 10 10 10 10 10 10 10 11 12 12 13 13 13 14 14 14 14 13 12 11 10 9 9 9 10 11 10 9 9 10 11 12 12 11 10 8 7 8 11 18 20 22 22 22 21 19 16 12 10 9 9 9 9 8 8 8 7 7 7 7 6 6 6 5 5
9 9 10 10 11 10 10 10 9 10 10 11 12 12 12 13 13 14 14 14 14 13 11 10 9 8 8 9 10 10 10 10 9 9 10 11 10 10 9 9 8 11 15 20 21 22 22 22 21 19 17 14 10 8 7 8 8 8 7 7 6 6 6 6 5 5 6 6 6
8 9 10 11 11 10 10 9 9 9 10 11 11 12 12 12 13 13 13 14 13 12 10 9 9 9 10 10 10 10 9 9 9 9 10 11 10 9 9 9 9 12 16 21 22 22 22 21 21 20 18 16 11 8 7 7 7 7 7 6 6 6 6 6 6 6 6 6 6
8 9 9 10 10 10 9 9 9 10 11 10 11 12 12 12 12 12 12 12 11 10 9 9 10 11 11 11 10 10 10 9 9 10 10 11 10 10 9 10 10 12 16 21 21 21 21 21 21 20 19 17 12 9 7 7 7 7 6 6 7 7 6 6 6 7 7 7 6
7 8 9 10 10 9 9 9 10 11 11 11 11 12 12 12 11 11 11 10 10 10 10 10 11 11 11 11 11 11 10 10 10 10 10 11 11 10 10 10 11 13 16 21 21 21 21 21 21 20 19 17 12 9 8 8 7 7 7 7 7 7 6 6 6 7 7 7 6
7 9 9 10 9 9 9 9 10 11 11 11 11 11 11 11 10 10 10 10 10 10 11 11 12 12 12 12 11 11 11 10 10 10 10 11 11 11 11 10 10 13 17 21 21 21 21 21 21 20 19 17 12 9 8 8 7 6 6 6 6 6 6 6 6 6 6 6 5
7 8 9 9 8 8 9 10 10 11 11 11 11 11 11 11 10 10 10 9 9 9 10 10 11 11 11 11 12 12 11 10 10 10 11 11 12 12 11 10 9 12 18 21 21 21 21 21 20 20 19 16 11 9 8 8 7 7 7 6 6 6 6 6 6 6 6 5 5
7 8 9 8 8 8 9 10 10 11 11 11 10 10 10 10 10 10 9 9 8 8 8 8 9 9 9 10 10 11 12 11 10 10 11 12 12 12 11 10 10 14 19 21 21 21 21 21 21 20 18 14 10 8 8 8 8 7 7 7 7 6 6 6 6 5 5 5 5
7 8 9 8 8 9 9 10 10 10 11 11 10 10 9 9 8 8 9 9 9 9 9 9 9 10 10 10 9 9 10 12 12 12 12 12 12 12 12 11 12 15 19 21 21 21 21 21 21 19 17 12 8 7 7 8 7 8 8 7 7 6 6 6 5 4 4 4 5
7 8 9 9 9 9 9 10 10 10 10 10 10 10 9 9 8 8 8 8 9 9 10 10 10 11 11 11 10 9 9 11 12 12 12 12 13 13 12 12 13 15 18 21 21 21 21 21 21 19 15 10 8 7 7 7 7 7 7 7 6 6 6 5 5 4 4 4 5
6 8 9 9 9 9 9 10 10 10 10 10 9 9 9 9 8 8 8 8 9 9 10 10 10 11 11 11 11 10 10 11 12 12 13 13 13 13 13 13 13 15 17 20 21 22 21 21 20 18 14 10 9 8 8 7 7 7 7 6 5 5 5 4 4 4 4 4 7
6 8 9 9 9 9 9 9 10 10 10 10 9 9 9 8 7 7 7 7 8 9 9 10 10 11 11 11 11 11 11 11 11 12 12 12 12 13 14 14 14 14 16 20 21 21 21 21 20 18 15 10 9 8 8 7 7 7 7 6 5 5 4 4 4 3 3 4 9
6 7 8 9 9 9 9 9 9 9 9 9 10 9 9 8 7 7 7 7 7 8 9 10 11 11 11 11 11 11 11 10 10 11 11 12 13 14 15 14 14 15 17 20 21 22 21 21 20 18 15 10 8 8 7 7 7 7 7 6 5 5 4 4 3 3 2 2 6
5 7 8 9 9 9 9 9 9 9 9 9 10 9 8 8 7 7 7 7 7 8 8 9 10 11 11 11 11 11 11 11 10 10 11 11 13 14 14 14 14 15 16 19 21 22 22 21 20 19 15 10 8 7 7 7 8 8 7 7 6 5 5 4 3 3 2 2 2
Wind_Direction
191 190 190 189 189 189 190 192 190 185 180 178 181 183 186 188 188 186 183 180 179 178 178 178 177 175 173 172 171 172 171 170 169 168 166 165 166 166 164 163 153 136 124 120 116 113 111 110 109 108 108 113 115 117 120 125 119 113 110 112 116 115 113 112 110 106 101 97 98
191 190 189 188 188 188 188 190 190 188 184 180 180 181 183 186 186 184 181 179 177 176 174 175 174 173 172 172 172 171 171 169 169 168 167 167 169 168 163 152 136 126 122 121 119 118 117 117 115 115 117 119 123 127 132 138 128 120 116 116 115 111 109 108 107 105 102 100 96
191 189 188 188 188 188 188 189 190 189 186 182 179 179 182 185 185 181 177 176 172 171 171 173 173 172 170 170 171 172 171 169 169 168 167 166 163 157 144 128 121 120 121 121 121 121 121 120 119 120 123 127 132 136 139 139 129 122 119 120 114 108 105 105 102 99 96 93 90
191 190 189 189 189 189 188 188 187 187 186 183 179 178 180 184 182 176 170 168 167 169 172 174 173 172 171 170 171 172 171 170 169 167 163 157 146 133 122 116 116 117 118 117 118 118 118 118 117 119 124 129 134 138 141 139 130 124 121 122 114 108 105 102 97 93 92 90 87
193 192 191 190 189 189 188 186 184 185 185 183 180 179 180 182 176 168 164 166 169 171 172 172 173 173 171 169 169 170 171 170 167 162 153 142 130 122 117 117 118 119 118 117 118 117 116 114 113 117 123 129 134 139 142 139 131 125 120 114 108 104 102 99 95 93 93 92 89
194 193 191 190 188 188 187 185 182 182 183 184 183 181 179 178 171 166 166 169 169 169 170 172 173 171 168 165 167 168 169 168 163 153 143 134 126 121 120 120 122 122 121 121 120 119 117 115 116 119 126 130 134 142 145 141 131 122 113 104 99 97 98 97 98 98 98 97 94
194 192 191 189 187 186 186 184 181 181 182 185 184 182 179 175 168 165 165 166 165 166 169 172 172 167 163 161 164 166 166 163 153 143 136 132 128 127 125 125 124 124 124 125 124 124 123 123 125 130 135 136 139 147 150 143 128 118 110 103 98 96 97 100 102 104 104 103 102
193 192 191 189 187 186 184 182 180 180 182 186 186 182 177 171 165 163 162 163 165 169 171 172 168 162 159 159 162 163 160 153 144 137 134 133 132 131 129 128 126 127 127 129 130 130 131 131 134 139 141 140 143 151 150 137 123 114 110 105 100 97 99 105 107 109 110 109 108
193 192 191 189 187 185 183 180 179 180 182 186 185 181 175 169 164 163 163 165 168 170 170 170 163 158 156 157 158 156 152 145 139 136 135 135 135 134 132 131 130 131 132 134 135 135 135 136 138 140 141 140 146 148 143 129 119 114 111 109 107 105 104 108 109 111 111 111 110
192 191 189 188 186 183 180 178 179 180 181 183 182 179 173 168 166 165 166 167 169 170 170 168 161 156 154 152 150 147 144 139 137 137 138 138 138 138 137 136 137 137 139 141 140 139 138 138 139 138 136 137 140 137 131 122 119 117 116 116 116 114 113 111 111 111 111 110 109
190 189 187 187 185 181 178 176 178 180 181 181 181 178 173 169 169 168 167 166 168 171 171 168 161 155 151 147 144 141 139 138 139 139 140 141 141 141 141 141 142 143 145 146 144 143 142 142 139 137 134 133 131 127 124 121 121 121 122 123 122 122 120 117 115 114 112 111 108
188 186 186 185 182 178 176 175 179 181 181 181 181 178 174 171 171 170 168 167 170 172 172 168 161 155 149 144 142 140 138 139 140 141 141 142 142 142 143 144 145 147 148 148 147 146 144 144 141 138 135 131 128 127 126 125 125 125 126 128 127 127 126 124 120 117 114 112 109
185 184 184 183 180 177 175 176 179 182 182 182 182 178 174 173 172 171 170 170 171 172 171 167 160 154 148 145 143 142 141 141 142 142 143 143 143 143 144 146 148 149 150 150 149 147 145 143 141 138 135 132 130 130 130 130 131 132 133 134 133 131 130 127 123 120 116 113 113
183 183 182 182 178 176 176 177 180 182 183 183 182 178 173 173 174 173 172 172 172 171 168 164 158 153 149 147 145 144 144 144 143 143 142 143 143 144 146 148 150 151 152 151 149 147 144 143 141 138 136 134 133 133 133 134 135 137 138 139 137 135 132 129 125 122 119 119 120
183 182 181 180 177 177 177 178 181 182 183 183 181 176 173 174 176 175 173 172 172 169 164 159 155 152 149 148 146 146 145 145 144 143 143 142 144 146 148 150 153 154 154 152 149 145 142 140 139 137 135 135 135 134 135 135 137 140 141 141 138 135 132 129 126 125 124 125 126
184 182 181 179 177 177 178 179 182 183 182 183 179 175 173 176 176 175 172 171 170 165 159 154 151 150 149 148 147 146 146 146 145 144 143 144 146 148 150 152 155 156 155 151 146 141 138 137 136 135 135 135 135 136 136 136 137 138 138 136 133 131 130 129 128 128 129 130 132
185 183 181 179 178 178 178 180 182 182 182 182 178 175 173 176 176 173 170 167 164 159 155 152 150 149 149 148 148 147 147 147 147 146 146 146 148 150 153 155 157 157 155 149 142 137 134 134 133 132 133 134 134 135 135 134 135 134 132 129 128 128 129 130 130 132 133 134 137
186 183 181 180 179 178 178 179 181 181 180 179 177 174 173 175 173 169 165 162 158 154 151 150 149 149 149 149 150 149 149 149 149 148 148 148 150 151 154 156 158 157 152 145 139 135 133 132 131 130 130 131 130 130 130 130 129 128 127 125 126 127 128 130 131 133 135 138 139
186 184 182 180 179 178 177 178 179 179 178 178 176 174 172 172 167 162 158 156 153 151 149 148 148 149 149 150 150 149 149 149 148 147 147 147 149 151 154 156 157 154 148 140 136 134 133 131 130 129 128 127 126 125 125 125 124 123 122 123 125 126 127 129 130 131 133 136 137
187 184 182 180 177 176 176 177 177 176 176 176 175 173 170 166 159 154 152 152 150 148 147 147 147 148 149 148 147 147 148 147 147 146 146 147 150 152 154 156 154 150 144 138 135 133 132 131 130 129 127 126 125 124 123 122 121 121 120 121 121 121 121 122 123 124 126 130 133
188 184 181 178 175 174 175 176 175 174 173 175 174 170 164 156 151 149 149 148 146 146 146 146 147 147 148 147 146 146 146 145 146 146 147 148 151 153 154 154 151 146 141 137 135 134 133 131 130 128 126 125 125 126 125 124 123 121 119 117 114 112 111 113 115 118 121 124 127
188 182 176 173 172 172 173 174 173 172 172 175 172 164 155 149 147 147 146 144 143 144 145 146 147 148 148 148 146 146 145 145 146 147 148 150 152 152 152 149 145 142 139 137 136 134 132 129 127 125 124 124 125 127 128 127 126 123 119 114 109 106 105 107 110 114 117 119 120
183 176 171 169 169 170 171 173 173 173 173 174 167 157 150 147 146 146 145 143 143 143 144 145 146 148 148 148 146 146 145 145 147 148 149 149 148 147 145 142 141 140 139 137 135 132 129 126 123 122 122 123 125 127 128 129 128 126 121 115 110 107 106 107 109 111 113 113 112
176 170 167 167 168 169 171 173 174 175 174 170 161 153 149 147 147 147 146 145 144 144 145 146 147 147 147 146 146 146 146 147 147 147 146 145 142 140 138 137 138 138 138 136 136 134 132 128 125 123 123 124 126 128 129 131 130 128 124 120 115 113 111 111 112 114 113 112 109
172 167 165 167 169 171 172 174 176 177 174 166 157 152 150 150 151 150 149 148 147 147 147 147 148 147 146 146 146 147 147 148 147 145 142 140 137 136 135 135 135 135 135 134 136 136 135 134 132 131 128 127 128 128 129 130 130 129 127 125 122 121 119 119 119 120 121 121 118
170 166 166 169 171 173 174 177 178 177 171 161 156 155 154 154 154 153 152 150 150 149 149 148 148 147 147 146 146 146 147 147 145 143 141 139 137 136 135 135 134 133 134 137 139 138 137 136 135 133 132 131 131 131 131 131 131 130 128 128 128 128 129 130 132 134 134 130 123
171 168 169 170 173 175 177 178 179 175 167 159 158 158 158 157 156 155 154 153 152 150 149 148 147 146 145 146 146 146 145 144 142 141 140 140 140 139 138 135 134 133 138 142 141 140 138 137 136 134 132 131 133 135 136 135 133 131 130 131 133 135 137 140 143 144 141 131 121
174 171 170 170 174 177 179 179 178 172 165 160 160 160 159 157 156 156 155 154 152 150 149 148 147 146 145 147 147 145 143 140 139 138 139 140 140 139 138 135 135 139 143 146 144 142 140 139 137 136 134 131 132 133 135 135 135 134 134 136 138 140 142 145 148 146 140 130 123
176 172 170 171 175 178 179 180 176 168 161 159 159 158 157 157 157 157 156 154 153 152 151 150 148 147 147 148 145 142 138 136 136 136 137 138 137 136 134 132 134 141 146 148 146 144 142 140 138 137 135 133 132 133 135 136 137 137 139 141 143 146 148 151 149 144 137 131 131
177 173 171 172 174 176 178 178 169 161 156 156 157 156 156 156 157 157 156 155 154 153 152 149 148 148 149 148 143 139 137 136 136 136 136 136 134 132 131 132 137 144 148 150 147 145 143 141 139 137 136 134 132 131 134 136 137 138 140 143 146 149 151 150 145 141 137 136 139
178 174 171 172 173 174 174 169 159 154 153 155 156 155 155 156 157 158 157 155 154 150 146 143 145 146 146 144 142 140 139 137 136 136 136 135 132 131 131 134 139 145 149 151 148 146 144 141 140 138 137 135 133 132 134 135 135 137 140 145 150 152 151 147 143 141 141 143 146
178 173 171 171 172 170 164 156 151 151 152 153 155 155 156 157 157 156 154 152 148 145 143 144 145 144 142 140 141 141 140 138 138 137 135 132 130 130 132 136 142 147 150 152 149 146 144 141 140 138 137 136 133 132 133 133 133 134 138 143 149 150 150 145 143 143 145 148 150
175 172 170 170 166 160 153 148 148 149 152 153 155 155 156 155 154 152 150 148 146 145 146 147 146 145 143 143 143 143 142 141 138 134 130 128 128 130 133 137 143 149 152 152 149 147 144 142 140 139 137 136 133 131 132 132 132 134 137 143 146 146 143 140 142 145 148 150 148
172 169 168 164 157 150 147 146 147 149 151 154 156 156 156 154 152 151 150 148 146 147 147 147 146 145 145 145 145 145 145 143 137 131 128 127 129 132 136 140 146 152 154 153 150 147 144 142 141 139 137 135 132 131 131 130 130 133 136 141 142 140 138 137 140 143 146 145 138
168 166 162 155 149 146 146 147 148 150 153 156 157 157 156 154 153 151 149 146 144 143 142 141 140 139 140 142 143 144 143 141 137 133 131 131 133 135 138 142 148 154 155 153 150 147 145 143 142 140 137 134 132 130 129 128 129 132 136 138 138 137 135 134 135 137 138 136 130
166 161 155 147 145 146 148 150 151 154 156 158 158 156 154 151 150 148 145 142 141 140 140 138 137 137 138 140 142 143 144 143 140 138 137 137 138 139 140 144 149 154 156 154 151 148 146 144 142 140 136 132 131 129 129 128 129 131 133 135 135 132 129 124 123 122 123 125 127
163 156 149 144 147 150 152 153 155 157 159 160 157 153 150 147 145 143 142 141 141 141 141 139 140 142 143 145 146 146 146 144 142 141 142 142 142 142 143 145 151 154 156 154 152 149 147 145 143 140 137 132 131 130 128 127 129 130 131 131 129 124 119 114 111 109 111 120 130
160 153 148 147 151 154 156 157 159 160 160 158 154 150 146 143 142 142 143 144 144 144 143 143 144 145 146 145 144 144 145 145 144 144 145 146 146 145 145 147 151 155 156 155 153 150 148 146 144 141 138 134 133 132 130 129 130 132 133 131 126 120 114 110 106 105 111 128 143
155 151 149 151 154 157 159 160 161 160 157 152 147 144 142 141 142 143 144 145 145 145 145 145 146 146 144 143 142 142 144 146 147 147 147 148 148 147 147 149 152 155 156 156 154 152 150 148 145 143 140 134 134 133 132 131 133 135 135 134 129 124 117 112 108 107 114 136 155
151 150 151 154 156 158 159 160 159 155 150 145 142 141 141 141 140 140 141 141 143 144 144 145 145 145 144 142 142 143 145 147 148 149 149 148 148 148 149 150 152 154 156 157 155 154 151 149 147 144 141 135 134 133 133 133 136 138 140 140 138 134 128 123 117 114 117 136 160
151 151 153 155 157 158 159 157 153 148 143 140 141 141 139 137 136 137 137 139 141 143 143 144 144 144 144 144 144 145 146 147 149 149 148 146 147 149 151 152 153 154 156 157 157 155 153 151 149 147 144 138 136 135 135 136 140 144 147 148 145 143 140 135 130 128 129 138 160